TimeEST,TemperatureF,Dew PointF,Humidity,Sea Level PressureIn,VisibilityMPH,Wind Direction,Wind SpeedMPH,Gust SpeedMPH,PrecipitationIn,Events,Conditions,WindDirDegrees,DateUTC
12:15 AM,47.7,47.7,100,30.14,10.0,Calm,Calm,-,N/A,Rain,Rain,0,2013-01-15 05:15:00
12:35 AM,47.7,47.7,100,30.13,10.0,Calm,Calm,-,0.02,Rain,Rain,0,2013-01-15 05:35:00
12:55 AM,47.3,47.3,100,30.12,10.0,Calm,Calm,-,0.03,Rain,Rain,0,2013-01-15 05:55:00
1:15 AM,47.5,47.3,99,30.12,10.0,Calm,Calm,-,N/A,,Drizzle,0,2013-01-15 06:15:00
1:35 AM,47.7,47.5,99,30.12,10.0,Calm,Calm,-,0.01,Rain,Rain,0,2013-01-15 06:35:00
1:55 AM,48.2,47.8,99,30.11,7.0,Calm,Calm,-,0.02,Rain,Light Rain,0,2013-01-15 06:55:00
2:15 AM,47.8,47.7,99,30.11,10.0,East,3.5,-,0.01,Rain,Rain,80,2013-01-15 07:15:00
2:35 AM,47.3,46.9,99,30.10,10.0,Calm,Calm,-,0.03,Rain,Rain,0,2013-01-15 07:35:00
2:55 AM,47.3,47.3,100,30.09,10.0,Calm,Calm,-,0.04,Rain,Heavy Rain,0,2013-01-15 07:55:00
3:15 AM,47.7,47.5,99,30.09,10.0,Calm,Calm,-,0.01,Rain,Light Rain,0,2013-01-15 08:15:00
3:35 AM,47.7,47.5,99,30.08,10.0,Calm,Calm,-,0.02,Rain,Rain,0,2013-01-15 08:35:00
3:55 AM,47.5,47.3,99,30.08,7.0,Calm,Calm,-,0.04,Rain,Rain,0,2013-01-15 08:55:00
4:15 AM,47.5,47.3,99,30.07,10.0,Calm,Calm,-,0.01,Rain,Heavy Rain,0,2013-01-15 09:15:00
4:35 AM,47.7,47.3,99,30.07,10.0,Calm,Calm,-,0.01,,Light Drizzle,0,2013-01-15 09:35:00
4:55 AM,48.2,47.7,98,30.06,7.0,Calm,Calm,-,0.03,Rain,Light Rain,0,2013-01-15 09:55:00
5:15 AM,48.2,47.7,98,30.07,5.0,Calm,Calm,-,0.04,Rain,Rain,0,2013-01-15 10:15:00
5:55 AM,48.4,48.2,99,30.08,4.0,Calm,Calm,-,0.18,Rain,Heavy Rain,0,2013-01-15 10:55:00
6:15 AM,48.7,48.2,98,30.07,5.0,Calm,Calm,-,0.04,Rain,Rain,0,2013-01-15 11:15:00
6:35 AM,48.7,48.2,98,30.07,10.0,Calm,Calm,-,0.06,Rain,Light Rain,0,2013-01-15 11:35:00
6:55 AM,49.1,48.4,97,30.08,7.0,Calm,Calm,-,0.10,Rain,Rain,0,2013-01-15 11:55:00
7:15 AM,49.1,48.6,98,30.08,5.0,Calm,Calm,-,0.06,Rain,Rain,0,2013-01-15 12:15:00
7:35 AM,49.3,48.7,98,30.08,7.0,Calm,Calm,-,0.10,Rain,Rain,0,2013-01-15 12:35:00
7:55 AM,49.3,48.7,98,30.08,7.0,Calm,Calm,-,0.13,Rain,Rain,0,2013-01-15 12:55:00
8:15 AM,49.6,49.1,98,30.09,4.0,Calm,Calm,-,0.07,Rain,Rain,0,2013-01-15 13:15:00
8:35 AM,50.2,49.5,97,30.09,5.0,Calm,Calm,-,0.09,Rain,Rain,0,2013-01-15 13:35:00
8:55 AM,51.6,50.9,97,30.09,4.0,Calm,Calm,-,0.13,Rain,Rain,0,2013-01-15 13:55:00
9:15 AM,52.2,51.4,97,30.09,4.0,Calm,Calm,-,0.01,Rain,Heavy Rain,0,2013-01-15 14:15:00
9:35 AM,52.7,51.8,97,30.10,3.0,Calm,Calm,-,0.03,Rain,Rain,0,2013-01-15 14:35:00
9:55 AM,52.7,52.0,97,30.10,7.0,Calm,Calm,-,0.05,Rain,Light Rain,0,2013-01-15 14:55:00
10:15 AM,52.9,52.2,97,30.10,5.0,Calm,Calm,-,0.01,Rain,Light Rain,0,2013-01-15 15:15:00
10:35 AM,52.9,52.2,97,30.09,3.0,Calm,Calm,-,0.03,Rain,Rain,0,2013-01-15 15:35:00
10:55 AM,53.1,52.3,97,30.09,7.0,Calm,Calm,-,0.04,Rain,Rain,0,2013-01-15 15:55:00
11:15 AM,54.1,53.4,97,30.08,4.0,Calm,Calm,-,N/A,Rain,Rain,0,2013-01-15 16:15:00
11:35 AM,54.1,53.4,97,30.07,2.5,Calm,Calm,-,0.04,Rain,Rain,0,2013-01-15 16:35:00
11:55 AM,55.4,54.7,97,30.06,7.0,ENE,4.6,-,0.07,Rain,Light Rain,60,2013-01-15 16:55:00
12:15 PM,55.8,55.0,97,30.04,7.0,ENE,4.6,-,N/A,Rain,Rain,70,2013-01-15 17:15:00
12:35 PM,56.1,55.4,97,30.04,5.0,ENE,3.5,-,0.01,,Drizzle,60,2013-01-15 17:35:00
1:15 PM,56.5,56.5,100,30.01,3.0,ENE,3.5,-,0.01,,Drizzle,70,2013-01-15 18:15:00
1:35 PM,56.7,56.7,100,30.01,5.0,Calm,Calm,-,0.01,Rain,Light Rain,0,2013-01-15 18:35:00
1:55 PM,56.8,56.8,100,30.00,2.5,Calm,Calm,-,0.03,Rain,Heavy Rain,0,2013-01-15 18:55:00
2:35 PM,56.1,56.1,100,29.99,3.0,Calm,Calm,-,0.05,Rain,Rain,0,2013-01-15 19:35:00
2:55 PM,56.3,56.3,100,29.99,3.0,East,3.5,-,0.09,Rain,Rain,90,2013-01-15 19:55:00
3:15 PM,56.1,56.1,100,29.99,4.0,SE,4.6,-,0.04,Rain,Rain,130,2013-01-15 20:15:00
3:35 PM,56.3,56.3,100,29.99,5.0,SSE,5.8,-,0.07,Rain,Rain,150,2013-01-15 20:35:00
3:55 PM,56.3,56.3,100,29.99,5.0,Calm,Calm,-,0.11,Rain,Rain,0,2013-01-15 20:55:00
4:15 PM,56.1,56.1,100,30.00,3.0,SSE,5.8,-,0.03,Rain,Rain,160,2013-01-15 21:15:00
4:35 PM,55.9,55.9,100,30.00,4.0,SSE,4.6,-,0.05,,Drizzle,150,2013-01-15 21:35:00
4:55 PM,55.8,55.8,100,30.01,3.0,SSE,8.1,-,0.14,Rain,Heavy Rain,150,2013-01-15 21:55:00
5:15 PM,55.4,55.4,100,30.01,5.0,SE,3.5,-,0.07,Rain,Rain,130,2013-01-15 22:15:00
5:35 PM,55.6,55.6,100,30.02,3.0,SSE,4.6,-,0.18,Rain,Heavy Rain,160,2013-01-15 22:35:00
5:55 PM,55.4,55.4,100,30.02,4.0,ESE,3.5,-,0.28,Rain,Heavy Rain,110,2013-01-15 22:55:00
6:15 PM,55.4,55.4,100,30.02,4.0,ESE,4.6,-,0.03,Rain,Rain,120,2013-01-15 23:15:00
6:35 PM,55.4,55.4,100,30.02,7.0,SE,3.5,-,0.07,Rain,Light Rain,140,2013-01-15 23:35:00
6:55 PM,55.6,55.6,100,30.02,5.0,SE,3.5,-,0.13,Rain,Rain,130,2013-01-15 23:55:00
7:15 PM,55.6,55.6,100,30.01,5.0,SE,4.6,-,0.05,Rain,Heavy Rain,130,2013-01-16 00:15:00
7:35 PM,55.0,55.0,100,30.01,5.0,East,3.5,-,0.12,Rain,Rain,90,2013-01-16 00:35:00
7:55 PM,55.2,55.2,100,30.00,5.0,Calm,Calm,-,0.18,Rain,Rain,0,2013-01-16 00:55:00
8:15 PM,55.2,55.2,100,30.01,5.0,Calm,Calm,-,0.03,Rain,Heavy Rain,0,2013-01-16 01:15:00
8:35 PM,55.0,55.0,100,30.00,5.0,Calm,Calm,-,0.08,Rain,Rain,0,2013-01-16 01:35:00
8:55 PM,55.4,55.4,100,29.99,5.0,Calm,Calm,-,0.11,Rain,Rain,0,2013-01-16 01:55:00
9:15 PM,55.4,55.4,100,29.99,5.0,Calm,Calm,-,0.03,Rain,Rain,0,2013-01-16 02:15:00
9:35 PM,55.6,55.6,100,29.99,7.0,Calm,Calm,-,0.05,,Drizzle,0,2013-01-16 02:35:00
9:55 PM,55.4,55.4,100,29.99,5.0,ENE,3.5,-,0.09,Rain,Rain,60,2013-01-16 02:55:00
10:15 PM,55.8,55.8,100,29.98,10.0,Calm,Calm,-,N/A,Rain,Rain,0,2013-01-16 03:15:00
10:35 PM,55.6,55.6,100,29.98,10.0,ENE,3.5,-,0.01,,Overcast,70,2013-01-16 03:35:00
10:55 PM,55.4,55.4,100,29.97,10.0,Calm,Calm,-,0.01,Rain,Rain,0,2013-01-16 03:55:00
11:15 PM,55.4,55.4,100,29.98,7.0,Calm,Calm,-,N/A,,Drizzle,0,2013-01-16 04:15:00
11:35 PM,55.4,55.4,100,29.97,5.0,Calm,Calm,-,0.01,Rain,Heavy Rain,0,2013-01-16 04:35:00
11:55 PM,55.8,55.8,100,29.97,7.0,Calm,Calm,-,0.02,,Drizzle,0,2013-01-16 04:55:00